Tracking 28520 objects as of 1-Mar-2024
HD Live streaming from Space Station
objects crossing your sky now

STARLINK-30931

Track STARLINK-30931 now!
10-day predictions
STARLINK-30931 is classified as:


NORAD ID: 58413
Int'l Code: 2023-180M
Perigee: 494.8 km
Apogee: 495.5 km
Inclination: 43.0 °
Period: 94.4 minutes
Semi major axis: 6866 km
RCS: Unknown
Launch date: November 22, 2023
Source: United States (US)
Launch site: AIR FORCE EASTERN TEST RANGE (AFETR)
Your satellite tracking list
Your tracking list is empty




NASA's NSSDC Master Catalog

Two Line Element Set (TLE):
1 58413U 23180M   24060.81767088  .00017731  00000-0  68579-3 0  9999
2 58413  43.0010 101.8954 0000462 300.7333  59.3473 15.25921283 16545
Source of the keplerian elements: AFSPC